Burns, OR

5:22 PM PDT on July 25, 2017 (GMT -0700)
Burns Municipal

Weather History for KBNO - January, 2013

Change the Weather History Date:

Thursday, January 10, 2013

  Actual Average Record
Temperature  
Mean Temperature 17 °F 24 °F  
Max Temperature 29 °F 34 °F 53 °F (1959)
Min Temperature 4 °F 14 °F -12 °F (2011)
Degree Days  
Heating Degree Days 48 41  
Month to date heating degree days 515 410  
Since 1 July heating degree days 3405 3677  
Cooling Degree Days 0 0  
Month to date cooling degree days 0 0  
Year to date cooling degree days 0 0  
Moisture  
Dew Point 12 °F    
Average Humidity 72    
Maximum Humidity 88    
Minimum Humidity 55    
Precipitation  
Precipitation T in 0.04 in 0.90 in (1979)
Month to date precipitation 0.08 0.44  
Year to date precipitation 0.08 0.44  
Sea Level Pressure  
Sea Level Pressure 29.91 in    
Wind  
Wind Speed 9 mph (WSW)    
Max Wind Speed 21 mph    
Max Gust Speed 25 mph    
Visibility 10 miles    
Events      
T = Trace of Precipitation, MM = Missing Value Source: NWS Daily Summary

Daily Weather History Graph

Daily Weather History Graph

Search for Another Location

Airport or City:

Trip Planner

Search our weather history database for the weather conditions in past years. The results will help you decide how hot, cold, wet, or windy it might be!

Date:

Astronomy

Jan. 10, 2013 Rise Set
Actual Time 7:27 AM PST 4:39 PM PST
Civil Twilight 6:55 AM PST 5:11 PM PST
Nautical Twilight 6:20 AM PST 5:47 PM PST
Astronomical Twilight 5:45 AM PST 6:21 PM PST
Moon 6:12 AM PST (1/10) 3:53 PM PST (1/10)
Length of Visible Light 10h 15m
Length of Day
9h 11m
Waning Crescent, 1% of the Moon is Illuminated
Jan 10
Waning Crescent
Jan 11
New
Jan 18
First Quarter
Jan 26
Full
Feb 3
Last Quarter

Hourly Weather History & Observations

Time (PST) Temp. Windchill Dew Point Humidity Pressure Visibility Wind Dir Wind Speed Gust Speed Precip Events Conditions
12:53 AM 26.1 °F 16.2 °F 16.0 °F 66% 29.80 in 10.0 mi West 10.4 mph - N/A   Overcast
1:53 AM 24.1 °F 16.0 °F 17.1 °F 75% 29.82 in 10.0 mi West 6.9 mph - N/A   Overcast
2:53 AM 21.9 °F 14.5 °F 16.0 °F 78% 29.84 in 10.0 mi West 5.8 mph - N/A   Overcast
3:53 AM 18.0 °F 8.7 °F 12.9 °F 81% 29.86 in 10.0 mi WNW 6.9 mph - N/A   Mostly Cloudy
4:53 AM 16.0 °F 7.4 °F 12.0 °F 84% 29.87 in 10.0 mi WNW 5.8 mph - N/A   Mostly Cloudy
5:53 AM 18.0 °F 4.8 °F 12.9 °F 81% 29.87 in 10.0 mi WSW 12.7 mph - N/A   Clear
6:53 AM 17.1 °F 4.3 °F 10.9 °F 77% 29.90 in 10.0 mi WSW 11.5 mph - N/A   Partly Cloudy
7:53 AM 16.0 °F 1.1 °F 10.9 °F 81% 29.91 in 10.0 mi WSW 15.0 mph - N/A   Clear
8:53 AM 19.9 °F 7.9 °F 12.9 °F 74% 29.93 in 10.0 mi WSW 11.5 mph - N/A   Scattered Clouds
9:53 AM 25.0 °F 12.6 °F 14.0 °F 63% 29.93 in 10.0 mi West 15.0 mph - N/A   Mostly Cloudy
10:53 AM 27.0 °F 16.7 °F 16.0 °F 63% 29.92 in 10.0 mi West 11.5 mph - N/A   Overcast
11:53 AM 28.9 °F 18.6 °F 15.1 °F 56% 29.89 in 10.0 mi West 12.7 mph 18.4 mph N/A   Overcast
12:53 PM 27.0 °F 15.6 °F 15.1 °F 61% 29.88 in 10.0 mi WNW 13.8 mph - N/A   Overcast
1:53 PM 27.0 °F 17.3 °F 12.9 °F 56% 29.89 in 10.0 mi West 10.4 mph 20.7 mph N/A   Scattered Clouds
2:31 PM 26.6 °F 14.7 °F 15.8 °F 64% 29.81 in 10.0 mi WNW 15.0 mph - 0.00 in   Scattered Clouds
2:53 PM 27.0 °F 17.3 °F 16.0 °F 63% 29.90 in 10.0 mi West 10.4 mph - 0.00 in   Clear
3:53 PM 23.0 °F 14.7 °F 15.1 °F 72% 29.93 in 10.0 mi WSW 6.9 mph - N/A   Clear
4:53 PM 17.1 °F 5.8 °F 10.9 °F 77% 29.96 in 10.0 mi SW 9.2 mph - N/A   Mostly Cloudy
5:53 PM 14.0 °F 3.9 °F 10.0 °F 84% 29.98 in 10.0 mi West 6.9 mph - N/A   Scattered Clouds
6:53 PM 15.1 °F 5.2 °F 10.9 °F 84% 29.98 in 10.0 mi SW 6.9 mph - 0.00 in   Overcast
7:53 PM 10.0 °F 1.8 °F 7.0 °F 87% 29.99 in 10.0 mi South 4.6 mph - N/A   Clear
8:53 PM 5.0 °F -4.1 °F 1.9 °F 87% 29.99 in 10.0 mi SW 4.6 mph - N/A   Scattered Clouds
9:53 PM 8.1 °F -5.3 °F 3.9 °F 83% 29.96 in 10.0 mi SSW 9.2 mph - N/A   Scattered Clouds
10:53 PM 15.1 °F 2.5 °F 12.0 °F 88% 29.94 in 10.0 mi SSW 10.4 mph - N/A   Mostly Cloudy
11:53 PM 12.9 °F 3.8 °F 9.0 °F 84% 29.94 in 10.0 mi WSW 5.8 mph - 0.00 in   Mostly Cloudy